Vertical_Velocity
1 -1 -1 -0 -0 -0 -0 -1 -1 -1 -0 -0 0 1 0 1 -1 -0 -1 -2 -1 -1 -1 -1 -1 -1 -1 -1 -1 -0 -1 -0 -0 -1 -1 -1 -1 -1 -1 -1 -2 -1 -0
0 0 -0 -1 -0 -1 0 0 -1 -1 -1 0 -0 0 -0 -0 -1 0 -2 -1 -0 -1 -1 -1 -2 -0 -1 -2 -1 -1 -1 -1 -1 -1 -0 -1 -1 -1 -1 -1 -1 -1 -1
2 -0 -0 -1 -1 -0 -0 -0 -0 -0 -0 -1 0 -0 -0 -0 1 -1 -1 0 -2 -1 -1 -1 -1 -0 -2 -1 -0 -0 -0 -1 -1 -1 -1 -1 -1 -1 -0 -0 -1 -1 -1
1 -0 -1 -1 -1 0 -0 -1 0 -1 -0 -1 -0 -0 -0 -1 0 0 -1 -1 -2 -1 -0 -1 -0 -1 -1 -0 -0 -0 -1 -1 -1 -1 -1 -0 -1 -0 -1 0 -0 -2 -0
1 -0 -1 -1 -1 -0 0 0 1 0 0 -0 -1 -0 -1 -1 1 -1 -1 -1 -1 -1 -0 -1 -0 -1 0 0 -1 -1 -1 -0 -0 -1 -0 0 -0 -0 -0 -0 -1 -1 -2
0 1 1 -0 0 -0 -1 -0 1 0 -0 -0 -0 -1 -1 -1 -0 -2 -1 -1 -1 -1 -0 -0 -0 -0 -0 -0 0 -0 -0 -0 -0 -1 -1 -1 -1 -1 -1 -1 -1 -1 0
1 1 1 0 1 1 -0 0 -0 -0 0 1 1 1 0 1 -1 -2 -1 -1 -1 0 -0 -0 0 0 -0 -0 -1 -1 0 -0 -1 -1 -1 -1 -1 -1 -2 -2 -2 -0 -1
1 1 2 1 1 0 1 -0 0 -1 -2 -1 -2 -0 0 -2 -2 -2 -1 -0 -1 0 -0 -1 -0 -1 -1 -1 -1 -1 -1 -1 0 0 0 -1 -1 -1 -1 -1 -0 -1 0
-0 1 1 2 2 -0 1 -1 0 -1 -0 -0 -1 -2 -2 -2 -2 -0 -0 -0 0 -1 0 -0 -0 -1 -1 -1 -1 -1 -2 -2 -2 -0 0 -0 -0 -0 -0 -1 -1 -1 -0
-0 0 1 2 1 1 1 1 1 -0 0 1 1 0 -1 -2 -2 -1 -1 -0 -0 -1 -0 -0 0 -1 -1 -1 -0 -0 -1 -1 -1 -0 -1 -0 0 -0 0 -1 -1 -1 -1
1 -0 1 0 1 -0 1 0 1 1 -0 1 0 1 1 0 -0 -1 -1 -1 -1 -0 1 -0 -0 -1 0 -0 -0 -1 -2 -1 -0 0 -0 -2 -1 0 -1 -1 -1 -2 -1
1 -1 -1 -0 -0 -0 1 -1 1 0 1 0 -0 1 -1 0 0 1 -1 -1 -1 -1 -2 -2 -1 -1 -1 -1 -1 -1 -0 -0 0 -0 -0 -1 -1 -2 -1 -1 -2 -1 -1
-2 1 -1 0 -0 0 -0 -0 -0 -0 -0 -0 0 -0 -0 -1 -0 -0 -0 -0 0 -0 0 -0 -1 -0 1 1 -1 -0 0 0 -1 -1 -2 -1 -1 -0 -0 -1 -2 -1 -1
-1 -0 1 -1 -0 -0 1 0 0 -1 -1 -0 -0 -0 -1 -1 -1 -2 -1 -1 -0 -1 0 -0 -0 -0 -0 -1 -1 -0 -1 -1 -1 -1 -1 -1 -1 -1 -1 0 -0 -1 -0
-1 -2 0 1 -0 -0 -0 1 -0 0 -0 -0 -0 0 -0 -1 -1 -1 -1 -1 -1 -1 -1 -1 -0 -0 1 0 -1 -0 0 -1 -1 -1 -1 -2 -1 0 -1 -0 -1 -1 -0
-0 -1 1 1 1 1 -0 0 0 -1 0 -1 -1 0 -1 -1 -1 -1 -0 -1 0 0 -1 0 0 -1 -1 -0 -1 -1 1 -0 -1 -0 -1 -1 -2 -1 -1 -0 -0 -1 -1
-2 0 -2 -0 0 -1 0 -0 0 1 1 0 -0 0 -2 -2 -1 -0 -0 -1 1 0 0 -1 -0 -2 -1 1 -3 -0 -1 1 -1 -0 0 -1 -1 -2 -2 -1 -1 -0 -2
3 -1 -0 -0 -0 0 1 0 0 2 1 -0 -1 -1 -1 -1 0 -0 -1 -2 0 1 0 -0 -0 0 -0 -1 -2 -1 -1 0 -1 1 -1 -0 -1 -2 -1 -2 -2 0 0
3 7 -0 -0 -0 -1 1 1 0 -0 -1 -2 -1 -0 -1 0 -0 -1 -1 -3 -0 1 1 0 -1 1 -1 -2 1 -0 -3 0 -1 2 -2 -0 0 -1 -2 -2 -2 -2 -2
1 4 -2 4 -2 -4 -1 -1 -1 1 -1 -1 -2 -1 1 -1 -1 1 -0 -1 -1 1 -1 -0 -0 -3 2 -2 -2 1 -1 -2 1 1 2 -1 -4 -4 -1 -1 -2 -1 -2
1 2 -2 1 -2 -1 -1 -0 -1 -0 -1 -0 -2 -1 -0 0 -0 1 2 -1 -3 -0 -1 -2 -0 0 1 -3 1 1 2 -0 1 -0 -1 3 1 -2 -3 -3 -1 -1 -1
-1 2 1 1 2 0 0 -1 0 -1 1 0 -1 -1 -1 -1 -3 -0 -0 -0 -0 -0 -1 -1 -2 -1 1 -0 -5 -2 8 11 -1 1 -2 1 3 1 -1 -4 -3 -2 -1
0 0 3 3 -1 1 -1 -1 0 -1 1 -0 -0 -1 -1 -1 -2 -0 -1 -1 -0 -1 3 -2 -1 -1 1 4 -1 -6 -5 2 4 5 7 3 -2 -4 -2 -1 -2 -2 -3
-2 -2 2 0 -1 -1 1 2 1 -0 -1 -0 -1 -2 -2 -1 -0 -0 0 1 2 0 2 1 -0 1 -2 2 2 -2 -2 -5 -2 3 12 11 5 3 -2 -1 -0 -1 -1
-0 0 -0 -0 0 1 -1 -1 -0 1 1 2 2 2 2 1 -1 -1 -1 -1 0 -1 0 1 0 1 0 -2 1 1 -1 1 1 -5 -1 2 1 3 4 1 0 0 -0
-0 1 1 0 -2 -1 -2 -1 -0 -0 0 -0 0 -1 -3 -4 -4 -3 -2 -1 -0 -0 -1 -1 -1 -1 -1 0 1 2 1 0 4 -1 -2 -2 1 5 1 -1 4 2 -0
Height
5902 5904 5905 5907 5908 5910 5911 5912 5913 5913 5913 5913 5913 5913 5914 5915 5915 5915 5915 5915 5914 5914 5913 5912 5912 5911 5910 5909 5908 5907 5905 5905 5904 5902 5901 5900 5899 5897 5896 5894 5892 5890 5889
5900 5902 5904 5905 5907 5908 5909 5910 5911 5912 5912 5912 5913 5913 5914 5914 5914 5914 5914 5914 5913 5913 5912 5911 5911 5910 5909 5908 5907 5905 5904 5904 5902 5901 5899 5898 5896 5894 5893 5891 5889 5887 5886
5898 5900 5901 5903 5905 5907 5907 5909 5910 5911 5911 5912 5912 5913 5913 5913 5913 5913 5913 5913 5912 5912 5911 5910 5909 5908 5907 5906 5905 5905 5903 5902 5901 5899 5898 5896 5894 5892 5891 5889 5887 5885 5884
5896 5898 5900 5901 5903 5905 5905 5907 5909 5910 5910 5911 5911 5912 5912 5912 5912 5912 5912 5911 5911 5910 5909 5908 5907 5906 5905 5904 5903 5902 5901 5900 5898 5897 5895 5894 5891 5890 5888 5886 5884 5883 5881
5895 5897 5898 5900 5901 5902 5903 5905 5907 5908 5909 5910 5910 5910 5910 5911 5911 5910 5910 5910 5910 5909 5907 5906 5905 5904 5903 5902 5901 5900 5899 5898 5896 5895 5893 5891 5890 5887 5885 5884 5882 5880 5878
5892 5895 5896 5898 5899 5900 5901 5903 5905 5906 5907 5908 5908 5909 5910 5910 5909 5908 5908 5908 5907 5907 5905 5904 5903 5903 5902 5901 5900 5899 5897 5895 5894 5892 5890 5888 5886 5885 5883 5881 5879 5877 5875
5889 5892 5894 5896 5897 5899 5900 5901 5903 5904 5905 5906 5907 5908 5908 5907 5907 5907 5906 5906 5905 5905 5903 5902 5901 5901 5900 5899 5897 5896 5895 5893 5891 5889 5887 5885 5884 5882 5880 5878 5876 5873 5871
5885 5888 5891 5893 5895 5896 5898 5900 5901 5902 5904 5904 5904 5904 5904 5904 5904 5905 5904 5903 5903 5903 5901 5900 5899 5898 5898 5896 5895 5893 5892 5890 5889 5887 5885 5883 5881 5879 5877 5875 5873 5871 5869
5882 5884 5887 5889 5892 5893 5895 5898 5900 5901 5902 5902 5902 5901 5900 5900 5902 5902 5902 5901 5901 5900 5899 5898 5897 5896 5895 5894 5892 5890 5889 5888 5886 5884 5882 5880 5878 5876 5875 5873 5871 5868 5866
5879 5881 5884 5885 5888 5890 5893 5895 5897 5898 5899 5899 5900 5899 5899 5899 5899 5899 5899 5899 5899 5898 5897 5896 5895 5894 5892 5891 5889 5887 5886 5885 5883 5882 5879 5878 5876 5874 5872 5869 5867 5865 5862
5874 5877 5879 5882 5884 5887 5889 5891 5893 5895 5896 5896 5897 5897 5897 5897 5897 5897 5897 5896 5896 5895 5894 5893 5892 5891 5890 5888 5886 5885 5883 5881 5880 5878 5876 5874 5872 5869 5867 5865 5863 5861 5859
5868 5872 5875 5878 5880 5884 5886 5887 5889 5891 5892 5893 5894 5894 5894 5894 5894 5895 5894 5894 5893 5891 5891 5890 5889 5888 5887 5885 5882 5881 5879 5877 5875 5874 5872 5871 5868 5866 5863 5861 5859 5856 5854
5862 5868 5871 5874 5876 5879 5882 5884 5885 5887 5888 5889 5890 5890 5890 5890 5890 5890 5890 5890 5889 5888 5888 5887 5885 5884 5882 5880 5878 5877 5875 5873 5871 5869 5867 5866 5863 5861 5859 5857 5854 5852 5850
5857 5861 5866 5870 5872 5875 5878 5879 5881 5882 5884 5885 5885 5886 5886 5886 5886 5886 5886 5885 5885 5884 5883 5882 5881 5879 5878 5876 5875 5873 5871 5868 5865 5863 5862 5860 5858 5855 5853 5851 5849 5847 5844
5853 5856 5860 5864 5866 5870 5872 5874 5876 5878 5879 5880 5881 5881 5882 5882 5882 5882 5882 5881 5881 5880 5879 5878 5877 5875 5873 5872 5870 5868 5865 5862 5860 5857 5856 5854 5852 5849 5847 5845 5842 5840 5838
5848 5850 5853 5857 5861 5864 5867 5869 5871 5872 5874 5876 5877 5877 5877 5877 5877 5877 5877 5876 5876 5875 5875 5873 5872 5870 5868 5867 5864 5862 5859 5857 5854 5852 5850 5848 5845 5843 5841 5838 5836 5833 5831
5839 5844 5846 5850 5854 5857 5861 5864 5865 5867 5869 5870 5871 5872 5872 5872 5872 5873 5872 5871 5871 5870 5869 5868 5867 5865 5863 5861 5859 5856 5854 5851 5848 5846 5844 5841 5838 5835 5833 5831 5829 5826 5824
5833 5837 5842 5845 5847 5851 5854 5857 5860 5862 5864 5864 5865 5866 5866 5867 5868 5868 5867 5865 5865 5865 5864 5862 5860 5859 5857 5855 5852 5849 5847 5845 5842 5840 5836 5833 5830 5827 5825 5822 5820 5818 5815
5828 5830 5835 5839 5842 5845 5848 5851 5854 5857 5858 5858 5859 5860 5861 5861 5862 5861 5860 5859 5859 5859 5857 5856 5854 5852 5850 5848 5846 5843 5840 5838 5835 5833 5828 5824 5821 5819 5816 5813 5811 5808 5806
5821 5823 5827 5832 5835 5838 5841 5844 5847 5849 5850 5852 5853 5853 5853 5854 5854 5854 5854 5853 5852 5852 5851 5850 5848 5845 5843 5840 5838 5836 5833 5830 5828 5825 5820 5816 5813 5810 5807 5804 5802 5799 5797
5813 5817 5821 5824 5828 5831 5834 5837 5839 5840 5842 5844 5845 5845 5846 5847 5847 5847 5847 5847 5846 5845 5844 5842 5840 5838 5835 5833 5831 5830 5827 5823 5820 5816 5812 5809 5805 5801 5799 5796 5793 5790 5787
5805 5808 5813 5817 5820 5823 5826 5828 5831 5832 5834 5836 5837 5838 5838 5839 5839 5840 5840 5839 5839 5838 5836 5834 5832 5830 5828 5824 5823 5821 5820 5818 5811 5807 5803 5799 5796 5792 5789 5787 5783 5781 5778
5796 5800 5804 5807 5811 5814 5817 5820 5822 5824 5826 5827 5829 5830 5830 5831 5831 5831 5831 5831 5830 5830 5828 5826 5823 5821 5819 5817 5813 5811 5809 5808 5804 5799 5795 5790 5787 5783 5780 5777 5774 5771 5768
5787 5790 5794 5798 5801 5805 5809 5812 5814 5816 5818 5820 5821 5823 5823 5824 5824 5824 5824 5823 5822 5820 5819 5817 5814 5812 5809 5808 5805 5801 5798 5796 5794 5792 5788 5782 5778 5774 5771 5768 5764 5761 5758
5777 5781 5784 5787 5791 5795 5799 5803 5806 5809 5811 5813 5814 5814 5815 5815 5815 5815 5815 5814 5812 5811 5810 5807 5805 5802 5800 5798 5796 5792 5788 5785 5783 5780 5777 5774 5769 5766 5763 5758 5755 5752 5748
5769 5773 5776 5779 5782 5785 5789 5792 5795 5798 5800 5802 5803 5804 5805 5805 5805 5804 5804 5803 5802 5800 5798 5796 5794 5792 5790 5787 5784 5782 5779 5776 5772 5769 5766 5763 5761 5758 5754 5749 5746 5742 5738